Location: Albany
(35.0170°S, 117.8920°E)
Time: 09:39:54
(UTC+08:00)

S-56A Canister/Altair - Pass Details

Date: 23 January 2021
Orbit: 632 x 2501 km, 38.9° (Epoch: 25 February)

Event Time Altitude Azimuth Distance (km) Brightness Sun altitude
Rises 18:28:07 0° 254° (WSW) 6,194 14.6 9.4°
Reaches altitude 10° 18:32:16 10° 253° (WSW) 5,154 16.2 8.6°
Maximum altitude 18:47:15 89° 162° (SSE) 2,135 9.9 5.7°
Drops below altitude 10° 18:58:08 10° 70° (ENE) 3,882 10.5 3.6°
Sets 19:00:49 0° 70° (ENE) 4,643 10.8 3.1°
